Location: Newark
(22.3060°N, 114.2134°E)
Time: 18:21:45
(UTC+00:00)

Vanguard 2 - Pass Details

Date: 06 August 2021
Orbit: 553 x 2937 km, 32.9° (Epoch: 26 September)

Event Time Altitude Azimuth Distance (km) Brightness Sun altitude
Rises 21:55:46 0° 301° (WNW) 2,719 10.0 -1.2°
Reaches altitude 10° 21:58:09 10° 316° (NW) 1,881 9.3 -0.7°
Maximum altitude 22:01:38 25° 14° (NNE) 1,312 9.2 0.1°
Drops below altitude 10° 22:06:00 10° 70° (ENE) 2,400 12.6 1.1°
Sets 22:09:29 0° 83° (E) 3,681 13.4 1.8°
